| time (UTC) | temp F | wind direction | speed knots | gust knots | rain 1hr in | rain 24hr in | rain mn in | humidity % | barometer mb |
| 20260902124749 | 59 | 242 | 1.7 | 4.3 | 0.00 | 0.01 | 0.00 | 83 | 1007.1 |
| 20260902124249 | 59 | 209 | 1.7 | 4.3 | 0.00 | 0.01 | 0.00 | 83 | 1007.1 |
| 20260902123739 | 59 | 228 | 1.7 | 4.3 | 0.00 | 0.01 | 0.00 | 84 | 1007.2 |
| 20260902123547 | 59 | 227 | 1.7 | 4.3 | 0.00 | 0.01 | 0.00 | 84 | 1007.2 |
| 20260902122738 | 58 | 195 | 1.7 | 3.5 | 0.00 | 0.01 | 0.00 | 84 | 1007.2 |
| 20260902122238 | 58 | 204 | 1.7 | 4.3 | 0.00 | 0.01 | 0.00 | 84 | 1007.4 |
| 20260902121744 | 58 | 211 | 2.6 | 4.3 | 0.00 | 0.01 | 0.00 | 84 | 1007.4 |
| 20260902121238 | 58 | 222 | 2.6 | 4.3 | 0.00 | 0.01 | 0.00 | 84 | 1007.4 |
| 20260902120738 | 58 | 207 | 2.6 | 4.3 | 0.00 | 0.01 | 0.00 | 84 | 1007.5 |
| 20260902120241 | 58 | 221 | 1.7 | 4.3 | 0.00 | 0.01 | 0.00 | 84 | 1007.5 |
| 20260902115745 | 58 | 214 | 2.6 | 4.3 | 0.00 | 0.01 | 0.00 | 84 | 1007.5 |
| 20260902115238 | 58 | 226 | 2.6 | 4.3 | 0.00 | 0.01 | 0.00 | 84 | 1007.6 |
| 20260902114739 | 58 | 233 | 1.7 | 3.5 | 0.00 | 0.01 | 0.00 | 84 | 1007.6 |
| 20260902114234 | 59 | 233 | 2.6 | 4.3 | 0.00 | 0.01 | 0.00 | 84 | 1007.6 |
| 20260902114051 | 59 | 227 | 2.6 | 5.2 | 0.00 | 0.01 | 0.00 | 85 | 1007.6 |
| 20260902113232 | 59 | 195 | 3.5 | 6.1 | 0.00 | 0.01 | 0.00 | 84 | 1007.6 |
| 20260902112732 | 59 | 208 | 3.5 | 7.0 | 0.00 | 0.01 | 0.00 | 84 | 1007.6 |
| 20260902112538 | 58 | 204 | 3.5 | 9.6 | 0.00 | 0.01 | 0.00 | 84 | 1007.7 |
| 20260902111736 | 58 | 175 | 2.6 | 9.6 | 0.00 | 0.01 | 0.00 | 85 | 1007.7 |
| 20260902111233 | 58 | 178 | 2.6 | 6.1 | 0.00 | 0.01 | 0.00 | 85 | 1007.7 |
| 20260902110827 | 58 | 210 | 2.6 | 7.0 | 0.00 | 0.01 | 0.00 | 85 | 1007.7 |
| 20260902105713 | 58 | 192 | 2.6 | 5.2 | 0.00 | 0.01 | 0.00 | 85 | 1007.7 |
| 20260902105458 | 58 | 229 | 2.6 | 5.2 | 0.00 | 0.01 | 0.00 | 85 | 1007.8 |
| 20260902104706 | 58 | 267 | 3.5 | 8.7 | 0.00 | 0.01 | 0.00 | 85 | 1007.8 |
| 20260902104510 | 58 | 244 | 3.5 | 8.7 | 0.00 | 0.01 | 0.00 | 85 | 1007.8 |
| 20260902103655 | 58 | 227 | 2.6 | 6.1 | 0.00 | 0.01 | 0.00 | 85 | 1007.7 |
| 20260902103148 | 59 | 213 | 2.6 | 6.1 | 0.00 | 0.01 | 0.00 | 85 | 1007.7 |
| 20260902102645 | 59 | 214 | 2.6 | 6.1 | 0.00 | 0.01 | 0.00 | 85 | 1007.7 |
| 20260902102148 | 59 | 216 | 3.5 | 6.1 | 0.00 | 0.01 | 0.00 | 84 | 1007.7 |
| 20260902101934 | 59 | 209 | 3.5 | 6.1 | 0.00 | 0.01 | 0.00 | 84 | 1007.7 |
| 20260902101137 | 58 | 179 | 2.6 | 5.2 | 0.00 | 0.01 | 0.00 | 85 | 1007.8 |
| 20260902100633 | 58 | 173 | 2.6 | 5.2 | 0.00 | 0.01 | 0.00 | 85 | 1007.8 |
| 20260902100136 | 59 | 142 | 2.6 | 5.2 | 0.00 | 0.01 | 0.00 | 85 | 1007.8 |
| 20260902095634 | 59 | 163 | 1.7 | 4.3 | 0.00 | 0.01 | 0.00 | 86 | 1008.1 |
| 20260902095139 | 59 | 159 | 0.9 | 3.5 | 0.00 | 0.01 | 0.00 | 86 | 1008.1 |
| 20260902094632 | 59 | 179 | 1.7 | 3.5 | 0.00 | 0.01 | 0.00 | 86 | 1008.1 |
| 20260902094423 | 59 | 173 | 0.9 | 2.6 | 0.00 | 0.01 | 0.00 | 86 | 1008.2 |
| 20260902093634 | 59 | 210 | 1.7 | 4.3 | 0.00 | 0.01 | 0.00 | 86 | 1008.2 |
| 20260902093133 | 59 | 195 | 1.7 | 5.2 | 0.00 | 0.01 | 0.00 | 86 | 1008.2 |
| 20260902092629 | 59 | 208 | 1.7 | 5.2 | 0.00 | 0.01 | 0.00 | 86 | 1008.2 |
| 20260902092136 | 59 | 195 | 1.7 | 4.3 | 0.00 | 0.01 | 0.00 | 86 | 1008.2 |
| 20260902091635 | 59 | 186 | 1.7 | 4.3 | 0.00 | 0.01 | 0.00 | 86 | 1008.2 |
| 20260902091132 | 59 | 205 | 2.6 | 4.3 | 0.00 | 0.01 | 0.00 | 86 | 1008.4 |
| 20260902090622 | 59 | 204 | 2.6 | 4.3 | 0.00 | 0.01 | 0.00 | 86 | 1008.4 |
| 20260902090109 | 59 | 254 | 2.6 | 4.3 | 0.00 | 0.01 | 0.00 | 86 | 1008.4 |
| 20260902085614 | 59 | 261 | 1.7 | 4.3 | 0.00 | 0.01 | 0.00 | 86 | 1008.7 |
| 20260902085110 | 59 | 211 | 1.7 | 5.2 | 0.00 | 0.01 | 0.00 | 86 | 1008.7 |
| 20260902084934 | 59 | 232 | 2.6 | 5.2 | 0.00 | 0.01 | 0.00 | 85 | 1008.7 |
| 20260902084431 | 59 | 254 | 2.6 | 5.2 | 0.00 | 0.01 | 0.00 | 85 | 1008.7 |
| 20260902083605 | 59 | 269 | 2.6 | 5.2 | 0.00 | 0.01 | 0.00 | 85 | 1008.7 |
| 20260902083103 | 59 | 219 | 2.6 | 6.1 | 0.00 | 0.01 | 0.00 | 85 | 1008.7 |
| 20260902082601 | 59 | 221 | 2.6 | 6.1 | 0.00 | 0.01 | 0.00 | 85 | 1009.0 |
| 20260902082438 | 59 | 225 | 0.9 | 3.5 | 0.00 | 0.01 | 0.00 | 85 | 1009.0 |
| 20260902081935 | 60 | 259 | 0.9 | 3.5 | 0.00 | 0.01 | 0.00 | 85 | 1009.0 |
| 20260902081431 | 60 | 164 | 0.9 | 2.6 | 0.00 | 0.01 | 0.00 | 85 | 1009.2 |
| 20260902080611 | 60 | 169 | 2.6 | 5.2 | 0.00 | 0.01 | 0.00 | 85 | 1009.2 |
| 20260902080045 | 60 | 192 | 2.6 | 5.2 | 0.00 | 0.01 | 0.00 | 85 | 1009.2 |
| 20260902075533 | 60 | 153 | 2.6 | 4.3 | 0.00 | 0.01 | 0.00 | 85 | 1009.2 |
| 20260902075039 | 60 | 204 | 2.6 | 4.3 | 0.00 | 0.01 | 0.00 | 85 | 1009.2 |
| 20260902074539 | 60 | 174 | 2.6 | 4.3 | 0.00 | 0.01 | 0.00 | 85 | 1009.2 |
| 20260902074041 | 60 | 187 | 2.6 | 5.2 | 0.00 | 0.01 | 0.00 | 85 | 1009.2 |
| 20260902073537 | 60 | 185 | 1.7 | 5.2 | 0.00 | 0.01 | 0.00 | 85 | 1009.2 |
| 20260902073034 | 60 | 201 | 1.7 | 3.5 | 0.00 | 0.01 | 0.00 | 85 | 1009.2 |
| 20260902072532 | 60 | 179 | 1.7 | 4.3 | 0.00 | 0.01 | 0.00 | 85 | 1009.2 |
| 20260902072032 | 60 | 246 | 1.7 | 4.3 | 0.00 | 0.01 | 0.00 | 85 | 1009.2 |
| 20260902071531 | 60 | 196 | 1.7 | 4.3 | 0.00 | 0.01 | 0.00 | 85 | 1009.2 |
| 20260902071029 | 60 | 221 | 1.7 | 3.5 | 0.00 | 0.01 | 0.00 | 85 | 1009.2 |
| 20260902070838 | 60 | 189 | 1.7 | 3.5 | 0.00 | 0.01 | 0.00 | 85 | 1009.2 |
| 20260902070029 | 60 | 206 | 1.7 | 4.3 | 0.00 | 0.01 | 0.00 | 85 | 1009.2 |
| 20260902065855 | 60 | 217 | 2.6 | 5.2 | 0.00 | 0.01 | 0.01 | 84 | 1009.1 |
| 20260902065031 | 60 | 175 | 2.6 | 5.2 | 0.00 | 0.01 | 0.01 | 84 | 1009.1 |
| 20260902064528 | 60 | 198 | 2.6 | 5.2 | 0.00 | 0.01 | 0.01 | 84 | 1009.1 |
| 20260902064032 | 60 | 188 | 2.6 | 4.3 | 0.00 | 0.01 | 0.01 | 84 | 1009.0 |
| 20260902063531 | 60 | 192 | 2.6 | 5.2 | 0.00 | 0.01 | 0.01 | 84 | 1009.0 |
| 20260902063035 | 60 | 163 | 2.6 | 5.2 | 0.00 | 0.01 | 0.01 | 83 | 1009.0 |
| 20260902062522 | 60 | 187 | 2.6 | 4.3 | 0.00 | 0.01 | 0.01 | 82 | 1009.1 |
| 20260902062010 | 61 | 163 | 1.7 | 3.5 | 0.00 | 0.01 | 0.01 | 81 | 1009.1 |
| 20260902061505 | 61 | 196 | 0.9 | 3.5 | 0.00 | 0.01 | 0.01 | 79 | 1009.1 |
| 20260902061001 | 61 | 211 | 0.9 | 2.6 | 0.00 | 0.01 | 0.01 | 78 | 1009.2 |
| 20260902060812 | 61 | 241 | 0.9 | 3.5 | 0.00 | 0.01 | 0.01 | 78 | 1009.2 |
| 20260902060006 | 61 | 181 | 1.7 | 3.5 | 0.00 | 0.01 | 0.01 | 77 | 1009.2 |
| 20260902055503 | 61 | 184 | 1.7 | 4.3 | 0.00 | 0.01 | 0.01 | 77 | 1009.3 |
| 20260902055003 | 61 | 176 | 2.6 | 5.2 | 0.00 | 0.01 | 0.01 | 77 | 1009.3 |
| 20260902054504 | 61 | 139 | 2.6 | 5.2 | 0.00 | 0.01 | 0.01 | 76 | 1009.3 |
| 20260902054002 | 62 | 164 | 3.5 | 6.1 | 0.00 | 0.01 | 0.01 | 76 | 1009.6 |
| 20260902053505 | 62 | 169 | 2.6 | 6.1 | 0.00 | 0.01 | 0.01 | 76 | 1009.6 |
| 20260902053005 | 62 | 182 | 2.6 | 5.2 | 0.00 | 0.01 | 0.01 | 76 | 1009.6 |
| 20260902052507 | 62 | 241 | 2.6 | 5.2 | 0.00 | 0.01 | 0.01 | 76 | 1009.6 |
| 20260902052007 | 62 | 205 | 2.6 | 5.2 | 0.00 | 0.01 | 0.01 | 76 | 1009.6 |
| 20260902051813 | 62 | 253 | 2.6 | 4.3 | 0.00 | 0.01 | 0.01 | 76 | 1009.6 |
| 20260902051004 | 62 | 196 | 3.5 | 6.1 | 0.00 | 0.01 | 0.01 | 75 | 1009.7 |
| 20260902050501 | 62 | 173 | 4.3 | 7.0 | 0.00 | 0.01 | 0.01 | 75 | 1009.7 |
| 20260902050228 | 62 | 215 | 3.5 | 7.8 | 0.00 | 0.01 | 0.01 | 74 | 1009.7 |
| 20260902045501 | 62 | 219 | 3.5 | 8.7 | 0.00 | 0.01 | 0.01 | 74 | 1009.6 |
| 20260902045007 | 62 | 220 | 3.5 | 8.7 | 0.00 | 0.01 | 0.01 | 74 | 1009.6 |
| 20260902044502 | 62 | 188 | 2.6 | 6.1 | 0.00 | 0.01 | 0.01 | 74 | 1009.6 |
| 20260902044001 | 62 | 206 | 1.7 | 6.1 | 0.00 | 0.01 | 0.01 | 74 | 1009.6 |
| 20260902043503 | 62 | 244 | 1.7 | 5.2 | 0.00 | 0.01 | 0.01 | 74 | 1009.6 |
| 20260902043001 | 62 | 250 | 1.7 | 3.5 | 0.00 | 0.01 | 0.01 | 74 | 1009.6 |
| 20260902042501 | 62 | 275 | 1.7 | 3.5 | 0.00 | 0.01 | 0.01 | 74 | 1009.7 |
| 20260902042003 | 62 | 238 | 1.7 | 3.5 | 0.00 | 0.01 | 0.01 | 74 | 1009.7 |
| 20260902041507 | 62 | 242 | 1.7 | 3.5 | 0.00 | 0.01 | 0.01 | 74 | 1009.7 |
| 20260902041006 | 62 | 252 | 0.9 | 2.6 | 0.00 | 0.01 | 0.01 | 74 | 1009.6 |
| 20260902040817 | 62 | 281 | 1.7 | 3.5 | 0.00 | 0.01 | 0.01 | 74 | 1009.6 |
| 20260902040004 | 62 | 290 | 1.7 | 3.5 | 0.00 | 0.01 | 0.01 | 74 | 1009.6 |
| 20260902035501 | 62 | 273 | 1.7 | 3.5 | 0.00 | 0.01 | 0.01 | 74 | 1009.5 |
| 20260902035003 | 62 | 281 | 1.7 | 3.5 | 0.00 | 0.01 | 0.01 | 73 | 1009.5 |
| 20260902034501 | 62 | 261 | 1.7 | 2.6 | 0.00 | 0.01 | 0.01 | 74 | 1009.5 |
| 20260902034006 | 62 | 261 | 1.7 | 3.5 | 0.00 | 0.01 | 0.01 | 74 | 1009.5 |
| 20260902033556 | 62 | 305 | 2.6 | 4.3 | 0.00 | 0.01 | 0.01 | 74 | 1009.5 |
| 20260902032820 | 63 | 308 | 1.7 | 4.3 | 0.00 | 0.01 | 0.01 | 74 | 1009.4 |
| 20260902031504 | 63 | 330 | 1.7 | 3.5 | 0.00 | 0.01 | 0.01 | 72 | 1009.4 |
| 20260902031005 | 64 | 291 | 2.6 | 5.2 | 0.00 | 0.01 | 0.01 | 72 | 1009.3 |
| 20260902030504 | 64 | 245 | 2.6 | 5.2 | 0.00 | 0.01 | 0.01 | 72 | 1009.3 |
| 20260902030009 | 64 | 238 | 2.6 | 5.2 | 0.00 | 0.01 | 0.01 | 72 | 1009.3 |
| 20260902025801 | 64 | 217 | 2.6 | 5.2 | 0.00 | 0.01 | 0.01 | 72 | 1009.3 |
| 20260902025000 | 64 | 185 | 2.6 | 4.3 | 0.00 | 0.01 | 0.01 | 71 | 1009.3 |
| 20260902024506 | 64 | 204 | 3.5 | 6.1 | 0.00 | 0.01 | 0.01 | 71 | 1009.3 |
| 20260902024005 | 64 | 240 | 3.5 | 6.1 | 0.00 | 0.01 | 0.01 | 70 | 1009.2 |
| 20260902023507 | 64 | 263 | 3.5 | 6.1 | 0.00 | 0.01 | 0.01 | 70 | 1009.2 |
| 20260902023001 | 64 | 272 | 3.5 | 7.8 | 0.00 | 0.01 | 0.01 | 70 | 1009.2 |
| 20260902022756 | 64 | 221 | 3.5 | 7.8 | 0.00 | 0.01 | 0.01 | 71 | 1009.4 |
| 20260902021947 | 64 | 186 | 3.5 | 6.1 | 0.00 | 0.01 | 0.01 | 72 | 1009.4 |
| 20260902021439 | 64 | 217 | 2.6 | 6.1 | 0.00 | 0.01 | 0.01 | 71 | 1009.4 |
| 20260902020936 | 64 | 243 | 2.6 | 6.1 | 0.00 | 0.01 | 0.01 | 72 | 1009.6 |
| 20260902020439 | 64 | 192 | 2.6 | 6.1 | 0.00 | 0.01 | 0.01 | 72 | 1009.6 |
| 20260902015936 | 64 | 189 | 2.6 | 5.2 | 0.00 | 0.01 | 0.01 | 72 | 1009.6 |
| 20260902015436 | 64 | 224 | 2.6 | 5.2 | 0.00 | 0.01 | 0.01 | 72 | 1009.5 |
| 20260902014937 | 64 | 228 | 2.6 | 6.1 | 0.00 | 0.01 | 0.01 | 72 | 1009.5 |
| 20260902014435 | 64 | 193 | 2.6 | 6.1 | 0.00 | 0.01 | 0.01 | 72 | 1009.5 |
| 20260902014253 | 64 | 178 | 3.5 | 6.1 | 0.00 | 0.01 | 0.01 | 72 | 1009.3 |
| 20260902013750 | 64 | 192 | 3.5 | 6.1 | 0.00 | 0.01 | 0.01 | 72 | 1009.3 |
| 20260902013249 | 64 | 171 | 2.6 | 5.2 | 0.00 | 0.01 | 0.01 | 71 | 1009.3 |
| 20260902012438 | 64 | 163 | 2.6 | 4.3 | 0.00 | 0.01 | 0.01 | 71 | 1009.3 |
| 20260902011934 | 64 | 201 | 2.6 | 5.2 | 0.00 | 0.01 | 0.01 | 70 | 1009.3 |
| 20260902011430 | 64 | 179 | 3.5 | 7.8 | 0.00 | 0.01 | 0.01 | 69 | 1009.3 |
| 20260902010947 | 65 | 178 | 3.5 | 7.8 | 0.00 | 0.01 | 0.01 | 69 | 1009.2 |
| 20260902005937 | 65 | 209 | 5.2 | 12.2 | 0.00 | 0.01 | 0.01 | 68 | 1009.2 |
| 20260902005434 | 65 | 235 | 7.0 | 16.5 | 0.00 | 0.01 | 0.01 | 68 | 1009.3 |
| 20260902004928 | 65 | 216 | 5.2 | 16.5 | 0.00 | 0.01 | 0.01 | 68 | 1009.3 |
| 20260902004423 | 65 | 207 | 4.3 | 8.7 | 0.00 | 0.01 | 0.01 | 68 | 1009.3 |
| 20260902003953 | 66 | 304 | 4.3 | 8.7 | 0.00 | 0.01 | 0.01 | 67 | 1009.1 |
| 20260902002855 | 66 | 173 | 4.3 | 9.6 | 0.00 | 0.01 | 0.01 | 68 | 1009.1 |
| 20260902002355 | 66 | 167 | 4.3 | 8.7 | 0.00 | 0.01 | 0.01 | 68 | 1009.2 |
| 20260902001856 | 66 | 180 | 4.3 | 8.7 | 0.00 | 0.01 | 0.01 | 69 | 1009.2 |
| 20260902001400 | 66 | 209 | 3.5 | 8.7 | 0.00 | 0.01 | 0.01 | 68 | 1009.2 |
| 20260902000855 | 66 | 208 | 3.5 | 9.6 | 0.00 | 0.01 | 0.01 | 68 | 1009.2 |
| 20260902000356 | 66 | 190 | 4.3 | 9.6 | 0.00 | 0.01 | 0.01 | 69 | 1009.2 |
| 20260901235849 | 66 | 178 | 4.3 | 8.7 | 0.00 | 0.01 | 0.01 | 69 | 1009.2 |
| 20260901235348 | 66 | 201 | 4.3 | 8.7 | 0.00 | 0.01 | 0.01 | 68 | 1009.3 |
| 20260901234849 | 66 | 202 | 4.3 | 10.4 | 0.00 | 0.01 | 0.01 | 68 | 1009.3 |
| 20260901234347 | 66 | 180 | 4.3 | 10.4 | 0.00 | 0.01 | 0.01 | 67 | 1009.3 |
| 20260901233846 | 66 | 240 | 5.2 | 12.2 | 0.00 | 0.01 | 0.01 | 66 | 1009.3 |
| 20260901233346 | 66 | 198 | 5.2 | 12.2 | 0.00 | 0.01 | 0.01 | 66 | 1009.3 |
| 20260901232845 | 66 | 229 | 5.2 | 10.4 | 0.00 | 0.01 | 0.01 | 65 | 1009.3 |
| 20260901232347 | 66 | 245 | 5.2 | 10.4 | 0.00 | 0.01 | 0.01 | 66 | 1009.2 |
| 20260901231844 | 66 | 237 | 5.2 | 10.4 | 0.00 | 0.01 | 0.01 | 65 | 1009.2 |
| 20260901231343 | 66 | 238 | 5.2 | 10.4 | 0.00 | 0.01 | 0.01 | 65 | 1009.2 |
| 20260901230843 | 66 | 227 | 4.3 | 9.6 | 0.00 | 0.01 | 0.01 | 68 | 1009.2 |
| 20260901230346 | 66 | 224 | 5.2 | 10.4 | 0.00 | 0.01 | 0.01 | 69 | 1009.2 |
| 20260901225841 | 65 | 228 | 7.0 | 11.3 | 0.00 | 0.01 | 0.01 | 72 | 1009.2 |
| 20260901225337 | 65 | 206 | 6.1 | 11.3 | 0.00 | 0.01 | 0.01 | 71 | 1009.2 |
| 20260901224822 | 65 | 233 | 6.1 | 11.3 | 0.00 | 0.01 | 0.01 | 70 | 1009.2 |
| 20260901224640 | 65 | 181 | 6.1 | 11.3 | 0.00 | 0.01 | 0.01 | 72 | 1009.2 |
| 20260901223810 | 65 | 186 | 4.3 | 10.4 | 0.00 | 0.01 | 0.01 | 72 | 1009.3 |
| 20260901223307 | 64 | 194 | 2.6 | 10.4 | 0.01 | 0.01 | 0.01 | 75 | 1009.3 |
| 20260901222750 | 64 | 236 | 2.6 | 6.1 | 0.01 | 0.01 | 0.01 | 79 | 1009.3 |
| 20260901222249 | 65 | 271 | 1.7 | 6.1 | 0.01 | 0.01 | 0.01 | 76 | 1009.3 |
| 20260901221739 | 64 | 157 | 0.9 | 3.5 | 0.01 | 0.01 | 0.01 | 78 | 1009.3 |
| 20260901221232 | 64 | 238 | 1.7 | 3.5 | 0.01 | 0.01 | 0.01 | 78 | 1009.3 |
| 20260901221047 | 63 | 233 | 0.9 | 3.5 | 0.01 | 0.01 | 0.01 | 78 | 1009.5 |
| 20260901220531 | 63 | 202 | 1.7 | 3.5 | 0.01 | 0.01 | 0.01 | 79 | 1009.5 |
| 20260901215707 | 63 | 254 | 2.6 | 4.3 | 0.01 | 0.01 | 0.01 | 79 | 1009.5 |
| 20260901215215 | 63 | 223 | 1.7 | 4.3 | 0.01 | 0.01 | 0.01 | 79 | 1009.7 |
| 20260901214707 | 63 | 185 | 2.6 | 5.2 | 0.01 | 0.01 | 0.01 | 80 | 1009.7 |
| 20260901214250 | 63 | 224 | 1.7 | 5.2 | 0.01 | 0.01 | 0.01 | 79 | 1009.7 |
| 20260901213202 | 63 | 348 | 3.5 | 6.1 | 0.00 | 0.00 | 0.00 | 78 | 1009.5 |
| 20260901212707 | 62 | 14 | 5.2 | 8.7 | 0.00 | 0.00 | 0.00 | 78 | 1009.5 |
| 20260901212206 | 63 | 359 | 5.2 | 8.7 | 0.00 | 0.00 | 0.00 | 78 | 1009.6 |
| 20260901212025 | 63 | 4 | 5.2 | 8.7 | 0.00 | 0.00 | 0.00 | 77 | 1009.6 |
| 20260901211517 | 64 | 15 | 3.5 | 6.1 | 0.00 | 0.00 | 0.00 | 74 | 1009.6 |
| 20260901210712 | 64 | 308 | 2.6 | 7.8 | 0.00 | 0.00 | 0.00 | 72 | 1009.7 |
| 20260901210208 | 64 | 152 | 2.6 | 7.8 | 0.00 | 0.00 | 0.00 | 71 | 1009.7 |
| 20260901210019 | 64 | 173 | 3.5 | 6.1 | 0.00 | 0.00 | 0.00 | 71 | 1009.7 |
| 20260901205202 | 64 | 181 | 4.3 | 8.7 | 0.00 | 0.00 | 0.00 | 72 | 1009.7 |
| 20260901204701 | 64 | 204 | 4.3 | 8.7 | 0.00 | 0.00 | 0.00 | 71 | 1009.7 |
| 20260901204202 | 64 | 247 | 4.3 | 8.7 | 0.00 | 0.00 | 0.00 | 72 | 1009.7 |
| 20260901204014 | 64 | 208 | 4.3 | 10.4 | 0.00 | 0.00 | 0.00 | 71 | 1009.7 |
| 20260901203201 | 64 | 219 | 4.3 | 10.4 | 0.00 | 0.00 | 0.00 | 71 | 1009.7 |
| 20260901202712 | 64 | 223 | 4.3 | 12.2 | 0.00 | 0.00 | 0.00 | 71 | 1009.7 |
| 20260901202203 | 64 | 265 | 4.3 | 12.2 | 0.00 | 0.00 | 0.00 | 71 | 1009.7 |
| 20260901201700 | 64 | 204 | 4.3 | 9.6 | 0.00 | 0.00 | 0.00 | 71 | 1009.7 |
| 20260901201157 | 64 | 233 | 4.3 | 8.7 | 0.00 | 0.00 | 0.00 | 70 | 1009.7 |
| 20260901200655 | 64 | 241 | 5.2 | 10.4 | 0.00 | 0.00 | 0.00 | 70 | 1009.7 |
| 20260901200139 | 64 | 227 | 7.0 | 12.2 | 0.00 | 0.00 | 0.00 | 70 | 1009.7 |
| 20260901195639 | 65 | 213 | 6.1 | 12.2 | 0.00 | 0.00 | 0.00 | 70 | 1009.7 |
| 20260901195135 | 65 | 213 | 4.3 | 9.6 | 0.00 | 0.00 | 0.00 | 68 | 1009.7 |
| 20260901194626 | 65 | 236 | 4.3 | 9.6 | 0.00 | 0.00 | 0.00 | 67 | 1009.7 |
| 20260901194427 | 65 | 264 | 4.3 | 8.7 | 0.00 | 0.00 | 0.00 | 67 | 1009.7 |
| 20260901193612 | 65 | 235 | 4.3 | 11.3 | 0.00 | 0.00 | 0.00 | 67 | 1009.7 |
| 20260901193115 | 66 | 209 | 3.5 | 11.3 | 0.00 | 0.00 | 0.00 | 66 | 1009.7 |
| 20260901192614 | 66 | 199 | 4.3 | 10.4 | 0.00 | 0.00 | 0.00 | 67 | 1009.7 |
| 20260901192201 | 65 | 264 | 5.2 | 10.4 | 0.00 | 0.00 | 0.00 | 67 | 1009.7 |
| 20260901191111 | 65 | 235 | 6.1 | 13.9 | 0.00 | 0.00 | 0.00 | 66 | 1009.7 |
| 20260901190611 | 66 | 238 | 5.2 | 13.9 | 0.00 | 0.00 | 0.00 | 66 | 1009.7 |
| 20260901190106 | 66 | 226 | 4.3 | 12.2 | 0.00 | 0.00 | 0.00 | 66 | 1009.7 |
| 20260901185607 | 66 | 225 | 4.3 | 12.2 | 0.00 | 0.00 | 0.00 | 68 | 1009.7 |
| 20260901185105 | 66 | 171 | 5.2 | 13.9 | 0.00 | 0.00 | 0.00 | 67 | 1009.7 |
| 20260901184606 | 65 | 244 | 6.1 | 13.9 | 0.00 | 0.00 | 0.00 | 66 | 1009.7 |
| 20260901184105 | 66 | 206 | 5.2 | 12.2 | 0.00 | 0.00 | 0.00 | 66 | 1009.7 |
| 20260901183604 | 66 | 171 | 3.5 | 8.7 | 0.00 | 0.00 | 0.00 | 67 | 1009.7 |
| 20260901183106 | 66 | 227 | 3.5 | 8.7 | 0.00 | 0.00 | 0.00 | 66 | 1009.7 |
| 20260901182905 | 65 | 248 | 4.3 | 8.7 | 0.00 | 0.00 | 0.00 | 68 | 1009.7 |
| 20260901182107 | 66 | 235 | 4.3 | 8.7 | 0.00 | 0.00 | 0.00 | 68 | 1009.7 |
| 20260901181606 | 66 | 248 | 4.3 | 8.7 | 0.00 | 0.00 | 0.00 | 67 | 1009.7 |
| 20260901181105 | 65 | 246 | 4.3 | 9.6 | 0.00 | 0.00 | 0.00 | 67 | 1009.5 |
| 20260901180600 | 65 | 226 | 5.2 | 11.3 | 0.00 | 0.00 | 0.00 | 68 | 1009.5 |
| 20260901180321 | 65 | 226 | 5.2 | 11.3 | 0.00 | 0.00 | 0.00 | 68 | 1009.5 |
| 20260901180058 | 65 | 226 | 5.2 | 11.3 | 0.00 | 0.00 | 0.00 | 68 | 1009.5 |
| 20260901175547 | 65 | 182 | 3.5 | 8.7 | 0.00 | 0.00 | 0.00 | 68 | 1009.4 |
| 20260901175046 | 65 | 219 | 3.5 | 7.8 | 0.00 | 0.00 | 0.00 | 68 | 1009.4 |
| 20260901174542 | 65 | 196 | 4.3 | 7.8 | 0.00 | 0.00 | 0.00 | 69 | 1009.4 |
| 20260901174042 | 64 | 162 | 4.3 | 10.4 | 0.00 | 0.00 | 0.00 | 70 | 1009.5 |
| 20260901173837 | 64 | 170 | 5.2 | 10.4 | 0.00 | 0.00 | 0.00 | 71 | 1009.5 |
| 20260901173301 | 64 | 219 | 5.2 | 9.6 | 0.00 | 0.00 | 0.00 | 70 | 1009.5 |
| 20260901173038 | 64 | 219 | 5.2 | 9.6 | 0.00 | 0.00 | 0.00 | 70 | 1009.5 |
| 20260901172536 | 64 | 192 | 4.3 | 9.6 | 0.00 | 0.00 | 0.00 | 71 | 1009.5 |
| 20260901172033 | 64 | 185 | 4.3 | 10.4 | 0.00 | 0.00 | 0.00 | 72 | 1009.5 |
| 20260901171534 | 64 | 213 | 4.3 | 10.4 | 0.00 | 0.00 | 0.00 | 71 | 1009.5 |
| 20260901171033 | 64 | 229 | 5.2 | 9.6 | 0.00 | 0.00 | 0.00 | 72 | 1009.3 |
| 20260901170800 | 64 | 235 | 5.2 | 10.4 | 0.00 | 0.00 | 0.00 | 71 | 1009.3 |
| 20260901170037 | 64 | 226 | 4.3 | 10.4 | 0.00 | 0.00 | 0.00 | 70 | 1009.3 |
| 20260901165837 | 64 | 186 | 4.3 | 13.0 | 0.00 | 0.00 | 0.00 | 70 | 1009.4 |
| 20260901165031 | 64 | 217 | 4.3 | 13.0 | 0.00 | 0.00 | 0.00 | 71 | 1009.4 |
| 20260901164833 | 64 | 181 | 5.2 | 10.4 | 0.00 | 0.00 | 0.00 | 72 | 1009.4 |
| 20260901164037 | 64 | 199 | 4.3 | 10.4 | 0.00 | 0.00 | 0.00 | 72 | 1009.4 |
| 20260901163529 | 64 | 169 | 4.3 | 8.7 | 0.00 | 0.00 | 0.00 | 72 | 1009.4 |
| 20260901163029 | 63 | 197 | 5.2 | 8.7 | 0.00 | 0.00 | 0.00 | 73 | 1009.4 |
| 20260901162837 | 63 | 152 | 5.2 | 8.7 | 0.00 | 0.00 | 0.00 | 73 | 1009.5 |
| 20260901162328 | 63 | 221 | 5.2 | 10.4 | 0.00 | 0.00 | 0.00 | 73 | 1009.5 |
| 20260901161529 | 63 | 227 | 4.3 | 10.4 | 0.00 | 0.00 | 0.00 | 72 | 1009.5 |
| 20260901161019 | 63 | 222 | 4.3 | 8.7 | 0.00 | 0.00 | 0.00 | 73 | 1009.6 |
| 20260901160513 | 63 | 238 | 5.2 | 11.3 | 0.00 | 0.00 | 0.00 | 73 | 1009.6 |
| 20260901160007 | 63 | 254 | 5.2 | 11.3 | 0.00 | 0.00 | 0.00 | 73 | 1009.6 |
| 20260901155501 | 63 | 257 | 3.5 | 9.6 | 0.00 | 0.00 | 0.00 | 74 | 1009.6 |
| 20260901154956 | 63 | 269 | 3.5 | 7.0 | 0.00 | 0.00 | 0.00 | 75 | 1009.6 |
| 20260901154453 | 62 | 250 | 4.3 | 7.0 | 0.00 | 0.00 | 0.00 | 76 | 1009.6 |
| 20260901153946 | 62 | 207 | 4.3 | 7.0 | 0.00 | 0.00 | 0.00 | 77 | 1009.7 |
| 20260901153437 | 62 | 227 | 4.3 | 10.4 | 0.00 | 0.00 | 0.00 | 77 | 1009.7 |
| 20260901152931 | 61 | 174 | 3.5 | 8.7 | 0.00 | 0.00 | 0.00 | 79 | 1009.7 |
| 20260901152431 | 61 | 207 | 2.6 | 6.1 | 0.00 | 0.00 | 0.00 | 80 | 1009.7 |
| 20260901151930 | 60 | 191 | 0.9 | 3.5 | 0.00 | 0.00 | 0.00 | 82 | 1009.7 |
| 20260901151435 | 60 | 111 | 0.9 | 2.6 | 0.00 | 0.00 | 0.00 | 83 | 1009.7 |
| 20260901150907 | 59 | 59 | 0.9 | 1.7 | 0.00 | 0.00 | 0.00 | 84 | 1009.7 |
| 20260901150401 | 59 | 13 | 0.9 | 2.6 | 0.00 | 0.00 | 0.00 | 85 | 1009.7 |
| 20260901145859 | 58 | 42 | 0.9 | 2.6 | 0.00 | 0.00 | 0.00 | 86 | 1009.7 |
| 20260901145345 | 58 | 48 | 0.9 | 1.7 | 0.00 | 0.00 | 0.00 | 86 | 1009.6 |
| 20260901144848 | 58 | 136 | 0.9 | 0.9 | 0.00 | 0.00 | 0.00 | 86 | 1009.6 |
| 20260901144625 | 57 | 136 | 0.9 | 0.9 | 0.00 | 0.00 | 0.00 | 86 | 1009.6 |
| 20260901144323 | 57 | 136 | 0.0 | 0.9 | 0.00 | 0.00 | 0.00 | 87 | 1009.5 |
| 20260901143332 | 57 | 202 | 0.9 | 1.7 | 0.00 | 0.00 | 0.00 | 87 | 1009.5 |
| 20260901142831 | 57 | 202 | 0.9 | 2.6 | 0.00 | 0.00 | 0.00 | 87 | 1009.5 |
| 20260901142629 | 57 | 198 | 1.7 | 2.6 | 0.00 | 0.00 | 0.00 | 87 | 1009.6 |
| 20260901142232 | 57 | 225 | 1.7 | 2.6 | 0.00 | 0.00 | 0.00 | 87 | 1009.6 |
| 20260901141334 | 57 | 187 | 1.7 | 3.5 | 0.00 | 0.00 | 0.00 | 87 | 1009.6 |
| 20260901140837 | 57 | 186 | 1.7 | 3.5 | 0.00 | 0.00 | 0.00 | 87 | 1009.4 |
| 20260901140651 | 56 | 211 | 1.7 | 3.5 | 0.00 | 0.00 | 0.00 | 87 | 1009.4 |
| 20260901135843 | 56 | 266 | 1.7 | 3.5 | 0.00 | 0.00 | 0.00 | 87 | 1009.4 |
| 20260901135327 | 56 | 245 | 1.7 | 4.3 | 0.00 | 0.00 | 0.00 | 87 | 1009.3 |
| 20260901134826 | 56 | 221 | 1.7 | 4.3 | 0.00 | 0.00 | 0.00 | 87 | 1009.3 |
| 20260901134322 | 56 | 225 | 1.7 | 3.5 | 0.00 | 0.00 | 0.00 | 87 | 1009.3 |
| 20260901133824 | 56 | 243 | 1.7 | 3.5 | 0.00 | 0.00 | 0.00 | 87 | 1009.3 |
| 20260901133319 | 56 | 236 | 1.7 | 4.3 | 0.00 | 0.00 | 0.00 | 87 | 1009.3 |
| 20260901132927 | 56 | 201 | 2.6 | 4.3 | 0.00 | 0.00 | 0.00 | 87 | 1009.3 |
| 20260901131811 | 56 | 221 | 0.9 | 3.5 | 0.00 | 0.00 | 0.00 | 86 | 1009.3 |
| 20260901131309 | 56 | 247 | 1.7 | 4.3 | 0.00 | 0.00 | 0.00 | 86 | 1009.3 |
| 20260901130809 | 56 | 229 | 1.7 | 4.3 | 0.00 | 0.00 | 0.00 | 86 | 1009.4 |
| 20260901130304 | 56 | 238 | 1.7 | 4.3 | 0.00 | 0.00 | 0.00 | 86 | 1009.4 |
| 20260901130123 | 56 | 269 | 1.7 | 2.6 | 0.00 | 0.00 | 0.00 | 86 | 1009.4 |
| 20260901125309 | 56 | 246 | 0.9 | 1.7 | 0.00 | 0.00 | 0.00 | 85 | 1009.2 |